Stansted, United Kingdom

8:59 PM BST on April 21, 2018 (GMT +0100)
Stansted

Weather History for EGSS - March, 2013

Change the Weather History Date:

Monday, March 18, 2013

  Actual Average Record
Temperature  
Mean Temperature 38 °F -  
Max Temperature 48 °F 52 °F 62 °F (2005)
Min Temperature 28 °F 37 °F 28 °F (2013)
Degree Days  
Heating Degree Days 27    
Moisture  
Dew Point 35 °F    
Average Humidity 91    
Maximum Humidity 100    
Minimum Humidity 62    
Precipitation  
Precipitation 0.00 in - - ()
Sea Level Pressure  
Sea Level Pressure 29.26 in    
Wind  
Wind Speed 4 mph ()    
Max Wind Speed 10 mph    
Max Gust Speed -    
Visibility 2.9 miles    
Events Fog , Rain    
Averages and records for this station are not official NWS values.
T = Trace of Precipitation, MM = Missing Value Source: Averaged Metar Reports

Daily Weather History Graph

Daily Weather History Graph

Search for Another Location

Airport or City:

Astronomy

Mar. 18, 2013 Rise Set
Actual Time 6:06 AM GMT 6:08 PM GMT
Civil Twilight 5:32 AM GMT 6:42 PM GMT
Nautical Twilight 4:53 AM GMT 7:22 PM GMT
Astronomical Twilight 4:12 AM GMT 8:03 PM GMT
Moon 9:12 AM GMT (3/18) 12:36 AM GMT (3/18)
Length of Visible Light 13h 09m
Length of Day
12h 02m
Waxing Crescent, 39% of the Moon is Illuminated
Mar 18
Waxing Crescent
Mar 19
First Quarter
Mar 27
Full
Apr 3
Last Quarter
Apr 10
New

Hourly Weather History & Observations

Time (GMT) Temp. Windchill Dew Point Humidity Pressure Visibility Wind Dir Wind Speed Gust Speed Precip Events Conditions
12:20 AM 33.8 °F 28.6 °F 33.8 °F 100% 29.21 in 0.6 mi West 5.8 mph - N/A Fog Fog
12:50 AM 33.8 °F 29.6 °F 33.8 °F 100% 29.21 in 0.2 mi WSW 4.6 mph - N/A Fog Fog
1:20 AM 33.8 °F 29.6 °F 32.0 °F 93% 29.21 in 0.1 mi WSW 4.6 mph - N/A Fog Fog
1:50 AM 33.8 °F 28.6 °F 32.0 °F 93% 29.21 in 0.1 mi WSW 5.8 mph - N/A Fog Fog
2:20 AM 32.0 °F 27.5 °F 32.0 °F 100% 29.21 in 0.1 mi SW 4.6 mph - N/A Fog Fog
2:50 AM 32.0 °F 28.7 °F 32.0 °F 100% 29.21 in 0.0 mi SW 3.5 mph - N/A Fog Light Freezing Fog
3:20 AM 32.0 °F 28.7 °F 32.0 °F 100% 29.21 in 0.0 mi SW 3.5 mph - N/A Fog Light Freezing Fog
3:50 AM 32.0 °F - 30.2 °F 93% 29.21 in 0.0 mi Calm Calm - N/A Fog Light Freezing Fog
4:20 AM 30.2 °F - 30.2 °F 100% 29.21 in 0.0 mi SSE 2.3 mph - N/A Fog Light Freezing Fog
4:50 AM 30.2 °F 26.7 °F 30.2 °F 100% 29.21 in 0.0 mi East 3.5 mph - N/A Fog Light Freezing Fog
5:20 AM 30.2 °F 26.7 °F 30.2 °F 100% 29.21 in 0.1 mi East 3.5 mph - N/A Fog Light Freezing Fog
5:50 AM 28.4 °F - 28.4 °F 100% 29.24 in 0.1 mi Variable 2.3 mph - N/A Fog Light Freezing Fog
6:20 AM 28.4 °F 22.2 °F 28.4 °F 100% 29.24 in 0.1 mi SE 5.8 mph - N/A Fog Light Freezing Fog
6:50 AM 28.4 °F 24.6 °F 28.4 °F 100% 29.24 in 0.1 mi Variable 3.5 mph - N/A Fog Light Freezing Fog
7:20 AM 30.2 °F - 30.2 °F 100% 29.24 in 0.1 mi Calm Calm - N/A Fog Light Freezing Fog
7:50 AM 30.2 °F - 30.2 °F 100% 29.24 in 0.2 mi Variable 2.3 mph - N/A Fog Light Freezing Fog
8:20 AM 32.0 °F 27.5 °F 32.0 °F 100% 29.24 in 0.2 mi East 4.6 mph - N/A Fog Light Freezing Fog
8:50 AM 33.8 °F 29.6 °F 33.8 °F 100% 29.24 in 0.3 mi East 4.6 mph - N/A Fog Fog
9:20 AM 35.6 °F 32.8 °F 35.6 °F 100% 29.24 in 0.5 mi Variable 3.5 mph - N/A Fog Patches of Fog
9:50 AM 39.2 °F 37.0 °F 39.2 °F 100% 29.24 in 5.0 mi Variable 3.5 mph - N/A Fog Fog
10:20 AM 42.8 °F 41.1 °F 37.4 °F 81% 29.24 in - Variable 3.5 mph - N/A   Clear
10:50 AM 44.6 °F 42.2 °F 39.2 °F 81% 29.24 in 6.2 mi East 4.6 mph - N/A   Scattered Clouds
11:20 AM 44.6 °F 40.2 °F 39.2 °F 81% 29.24 in 5.6 mi SE 8.1 mph - N/A   Scattered Clouds
11:50 AM 46.4 °F 42.9 °F 39.2 °F 76% 29.24 in 6.2 mi ESE 6.9 mph - N/A   Scattered Clouds
12:20 PM 44.6 °F 41.4 °F 37.4 °F 76% 29.24 in 6.2 mi SE 5.8 mph - N/A   Scattered Clouds
12:50 PM 46.4 °F 43.5 °F 37.4 °F 71% 29.24 in 6.2 mi SE 5.8 mph - N/A   Scattered Clouds
1:20 PM 48.2 °F - 37.4 °F 66% 29.24 in 6.2 mi SE 5.8 mph - N/A   Mostly Cloudy
1:50 PM 48.2 °F - 35.6 °F 62% 29.24 in 6.2 mi ENE 8.1 mph - N/A   Scattered Clouds
2:20 PM 44.6 °F 40.2 °F 35.6 °F 71% 29.24 in 6.2 mi NNE 8.1 mph - N/A   Scattered Clouds
2:50 PM 42.8 °F 37.0 °F 35.6 °F 76% 29.24 in 6.2 mi NE 10.4 mph - N/A   Mostly Cloudy
3:20 PM 42.8 °F 38.0 °F 37.4 °F 81% 29.24 in 6.2 mi ENE 8.1 mph - N/A Rain Light Rain
3:50 PM 42.8 °F 39.3 °F 37.4 °F 81% 29.27 in 6.2 mi East 5.8 mph - N/A Rain Light Rain
4:20 PM 42.8 °F 41.1 °F 37.4 °F 81% 29.27 in 6.2 mi Variable 3.5 mph - N/A   Mostly Cloudy
4:50 PM 41.0 °F 37.1 °F 37.4 °F 87% 29.27 in 6.2 mi SE 5.8 mph - N/A   Overcast
5:20 PM 41.0 °F 39.0 °F 37.4 °F 87% 29.27 in 6.2 mi Variable 3.5 mph - N/A   Mostly Cloudy
5:50 PM 41.0 °F 39.0 °F 37.4 °F 87% 29.30 in 6.2 mi Variable 3.5 mph - N/A Rain Light Rain
6:20 PM 39.2 °F 35.9 °F 37.4 °F 93% 29.30 in 6.2 mi NNW 4.6 mph - N/A Rain Light Rain
6:50 PM 39.2 °F 37.0 °F 37.4 °F 93% 29.30 in 6.2 mi NW 3.5 mph - N/A Rain Light Rain
7:20 PM 39.2 °F 35.0 °F 37.4 °F 93% 29.33 in 2.5 mi NNW 5.8 mph - N/A   Drizzle
7:50 PM 39.2 °F 35.0 °F 37.4 °F 93% 29.33 in 3.1 mi North 5.8 mph - N/A Rain Light Rain
8:20 PM 39.2 °F 33.6 °F 37.4 °F 93% 29.33 in 2.5 mi North 8.1 mph - N/A   Light Drizzle
8:50 PM 37.4 °F 32.8 °F 37.4 °F 100% 29.33 in 1.7 mi North 5.8 mph - N/A   Light Drizzle
9:20 PM 37.4 °F 32.8 °F 37.4 °F 100% 29.33 in 3.1 mi NNE 5.8 mph - N/A Rain Light Rain
9:50 PM 37.4 °F 33.8 °F 35.6 °F 93% 29.33 in 3.7 mi North 4.6 mph - N/A   Light Drizzle
10:20 PM 37.4 °F 33.8 °F 35.6 °F 93% 29.36 in 2.2 mi NNW 4.6 mph - N/A   Overcast
10:50 PM 37.4 °F 32.1 °F 35.6 °F 93% 29.36 in 1.7 mi North 6.9 mph - N/A   Overcast
11:20 PM 35.6 °F 30.7 °F 35.6 °F 100% 29.36 in 1.2 mi North 5.8 mph - N/A   Overcast
11:50 PM 35.6 °F 30.7 °F 35.6 °F 100% 29.36 in 1.4 mi North 5.8 mph - N/A   Mostly Cloudy